Change the Weather History Date:

Wednesday, January 2, 2013

  Actual Average Record
Temperature  
Mean Temperature 21 °F 29 °F  
Max Temperature 32 °F 41 °F 69 °F (1997)
Min Temperature 10 °F 16 °F -19 °F (1911)
Degree Days  
Heating Degree Days 43    
Moisture  
Dew Point 15 °F    
Average Humidity 75    
Maximum Humidity 88    
Minimum Humidity 54    
Precipitation  
Precipitation T in 0.01 in 0.18 in (1926)
Month to date precipitation T 0.02  
Year to date precipitation T 0.02  
Sea Level Pressure  
Sea Level Pressure 30.26 in    
Wind  
Wind Speed 17 mph (NW)    
Max Wind Speed 24 mph    
Max Gust Speed 30 mph    
Visibility 9 miles    
Events Snow    
T = Trace of Precipitation, MM = Missing Value Source: NWS Daily Summary

Daily Weather History Graph

Daily Weather History Graph

Search for Another Location

Airport or City:

Trip Planner

Search our weather history database for the weather conditions in past years. The results will help you decide how hot, cold, wet, or windy it might be!

Date:

Astronomy

Jan. 02, 2013 Rise Set
Actual Time 7:08 AM MST 4:38 PM MST
Civil Twilight 6:38 AM MST 5:07 PM MST
Nautical Twilight 6:05 AM MST 5:41 PM MST
Astronomical Twilight 5:32 AM MST 6:13 PM MST
Moon 10:10 PM MST (1/2) 9:53 AM MST (1/2)
Length of Visible Light 10h 29m
Length of Day
9h 29m
Waning Gibbous, 74% of the Moon is Illuminated
Jan 2
Waning Gibbous
Jan 4
Last Quarter
Jan 11
New
Jan 18
First Quarter
Jan 26
Full

Hourly Weather History & Observations

Time (MST) Temp. Windchill Dew Point Humidity Pressure Visibility Wind Dir Wind Speed Gust Speed Precip Events Conditions
12:53 AM 16.0 °F 0.6 °F 8.1 °F 71% 30.20 in 10.0 mi West 16.1 mph - N/A   Clear
1:53 AM 18.0 °F 5.4 °F 10.0 °F 71% 30.22 in 10.0 mi WNW 11.5 mph - N/A   Clear
2:53 AM 21.0 °F 7.1 °F 12.0 °F 68% 30.22 in 10.0 mi WNW 16.1 mph - N/A   Overcast
3:53 AM 23.0 °F 9.6 °F 18.0 °F 81% 30.21 in 10.0 mi WNW 16.1 mph - N/A   Overcast
4:53 AM 21.9 °F 8.2 °F 17.1 °F 82% 30.22 in 10.0 mi NW 16.1 mph - N/A   Partly Cloudy
5:53 AM 25.0 °F 9.9 °F 18.0 °F 75% 30.25 in 10.0 mi NW 23.0 mph 29.9 mph N/A   Overcast
6:53 AM 24.1 °F 9.0 °F 18.0 °F 77% 30.28 in 10.0 mi NW 21.9 mph - 0.00 in   Overcast
7:29 AM 24.8 °F 10.0 °F 19.4 °F 80% 30.13 in 10.0 mi NW 21.9 mph - N/A   Overcast
7:40 AM 24.8 °F 9.3 °F 19.4 °F 80% 30.14 in 2.5 mi NW 24.2 mph - 0.00 in Snow Light Snow
7:53 AM 24.1 °F 9.0 °F 21.0 °F 88% 30.30 in 1.8 mi NW 21.9 mph - 0.00 in Snow Light Snow
7:58 AM 24.8 °F 10.0 °F 21.2 °F 86% 30.15 in 3.0 mi NNW 21.9 mph - 0.00 in Snow Light Snow
8:17 AM 24.8 °F 9.3 °F 21.2 °F 86% 30.15 in 4.0 mi NNW 24.2 mph - 0.00 in Snow Light Snow
8:24 AM 24.8 °F 10.3 °F 21.2 °F 86% 30.15 in 4.0 mi NW 20.7 mph - 0.00 in Snow Light Snow
8:53 AM 25.0 °F 11.3 °F 21.0 °F 85% 30.31 in 10.0 mi NW 18.4 mph - 0.00 in   Scattered Clouds
9:53 AM 27.0 °F 13.2 °F 19.0 °F 72% 30.32 in 10.0 mi NNW 20.7 mph 28.8 mph N/A   Clear
10:53 AM 28.9 °F 16.1 °F 21.0 °F 72% 30.29 in 10.0 mi NNW 19.6 mph - N/A   Scattered Clouds
11:53 AM 30.9 °F 18.4 °F 19.0 °F 61% 30.25 in 10.0 mi NNW 20.7 mph 29.9 mph N/A   Clear
12:53 PM 30.9 °F 18.1 °F 17.1 °F 57% 30.23 in 10.0 mi NNW 21.9 mph 29.9 mph N/A   Partly Cloudy
1:53 PM 32.0 °F 20.1 °F 17.1 °F 54% 30.23 in 10.0 mi NNW 19.6 mph 29.9 mph N/A   Clear
2:53 PM 30.9 °F 18.4 °F 17.1 °F 57% 30.24 in 10.0 mi NNW 20.7 mph 25.3 mph N/A   Clear
4:53 PM 23.0 °F 17.0 °F 14.0 °F 68% 30.28 in 10.0 mi North 4.6 mph - N/A   Clear
5:53 PM 14.0 °F 5.1 °F 9.0 °F 80% 30.34 in 10.0 mi West 5.8 mph - N/A   Clear
6:53 PM 12.9 °F 3.8 °F 8.1 °F 81% 30.36 in 10.0 mi West 5.8 mph - N/A   Partly Cloudy
7:53 PM 12.9 °F 1.6 °F 8.1 °F 81% 30.35 in 10.0 mi West 8.1 mph - N/A   Mostly Cloudy
8:53 PM 14.0 °F 2.9 °F 9.0 °F 80% 30.36 in 10.0 mi West 8.1 mph - N/A   Overcast
9:53 PM 12.0 °F -0.4 °F 6.1 °F 77% 30.36 in 10.0 mi West 9.2 mph - N/A   Clear
10:53 PM 14.0 °F 1.2 °F 7.0 °F 74% 30.39 in 10.0 mi NW 10.4 mph - N/A   Clear
11:53 PM 10.9 °F -0.8 °F 6.1 °F 81% 30.40 in 10.0 mi WNW 8.1 mph - N/A   Clear